GW0824 Weather Reports


time (UTC)temp
C
wind
direction
speed
KPH
gust
KPH
rain 1hr
cm
rain 24hr
cm
rain mn
cm
humidity
%
barometer
mb
20260504234514 21 360 3.2 12.9 0.00 0.00 0.00 31 886.2
20260504233013 22 360 3.2 19.3 0.00 0.00 0.00 30 885.6
20260504231512 22 360 4.8 24.1 0.00 0.00 0.00 29 885.2
20260504230013 23 360 3.2 24.1 0.00 0.00 0.00 29 884.8
20260504224515 24 360 4.8 25.7 0.00 0.00 0.00 27 884.5
20260504223018 25 339 6.4 25.7 0.00 0.00 0.00 25 884.3
20260504221509 27 360 0.0 6.4 0.00 0.00 0.00 16 884.4
20260504220014 26 250 0.0 6.4 0.00 0.00 0.00 15 884.5
20260504214507 27 254 1.6 8.0 0.00 0.00 0.00 16 884.6
20260504213014 27 360 0.0 3.2 0.00 0.00 0.00 15 884.8
20260504211503 27 360 0.0 14.5 0.00 0.00 0.00 16 884.9
20260504210002 27 309 0.0 12.9 0.00 0.00 0.00 16 885.0
20260504204559 27 360 1.6 9.7 0.00 0.00 0.00 16 885.2
20260504203111 27 332 1.6 19.3 0.00 0.00 0.00 17 885.5
20260504201600 27 360 0.0 3.2 0.00 0.00 0.00 15 885.6
20260504194551 27 360 0.0 3.2 0.00 0.00 0.00 15 885.8
20260504193050 27 360 0.0 3.2 0.00 0.00 0.00 15 886.0
20260504191554 26 360 0.0 6.4 0.00 0.00 0.00 16 886.1
20260504190046 26 101 0.0 3.2 0.00 0.00 0.00 17 886.2
20260504184539 25 355 0.0 3.2 0.00 0.00 0.00 17 886.3
20260504183035 25 40 0.0 1.6 0.00 0.00 0.00 19 886.5
20260504181538 25 333 0.0 3.2 0.00 0.00 0.00 19 886.7
20260504180029 24 22 1.6 6.4 0.00 0.00 0.00 19 887.0
20260504174527 24 340 1.6 4.8 0.00 0.00 0.00 19 887.2
20260504173026 24 222 0.0 4.8 0.00 0.00 0.00 18 887.4
20260504171523 24 343 1.6 12.9 0.00 0.00 0.00 19 887.5
20260504150108 18 221 0.0 4.8 0.00 0.00 0.00 35 887.7
20260504081514 8 360 0.0 0.0 0.00 0.00 0.00 57 888.3
20260504044544 13 32 0.0 0.0 0.00 0.00 0.00 43 889.6
20260504043037 13 12 0.0 1.6 0.00 0.00 0.00 43 889.7
20260504041536 13 31 0.0 0.0 0.00 0.00 0.00 44 889.8
20260504040044 13 11 0.0 0.0 0.00 0.00 0.00 43 889.8
20260504034541 13 355 0.0 0.0 0.00 0.00 0.00 41 889.8
20260504033034 13 360 0.0 0.0 0.00 0.00 0.00 40 889.9
20260504031534 15 360 0.0 0.0 0.00 0.00 0.00 39 889.8
20260504030033 15 360 0.0 1.6 0.00 0.00 0.00 37 889.8
20260504024533 16 360 0.0 0.0 0.00 0.00 0.00 36 889.8
20260504023033 17 360 0.0 0.0 0.00 0.00 0.00 35 889.8
20260504021532 17 360 0.0 0.0 0.00 0.00 0.00 34 889.8
20260504020031 18 360 0.0 0.0 0.00 0.00 0.00 33 889.8
20260504014534 20 360 0.0 0.0 0.00 0.00 0.00 31 889.6
20260504013040 20 360 0.0 0.0 0.00 0.00 0.00 30 889.6
20260504011530 21 360 0.0 0.0 0.00 0.00 0.00 28 889.5
20260504010029 22 360 0.0 0.0 0.00 0.00 0.00 27 889.5
20260504004528 22 360 0.0 0.0 0.00 0.00 0.00 25 889.5
20260504003027 23 342 0.0 1.6 0.00 0.00 0.00 24 889.5
20260504001526 23 325 0.0 8.0 0.00 0.00 0.00 22 889.7
20260504000024 24 333 0.0 3.2 0.00 0.00 0.00 21 889.8